Wind_Speed
20 22 22 22 23 24 24 24 22 21 21 18 15 13 10 10 9 10 14 12 11 12 5 4 6 3 6 8 8 9 7 5 8 10 10 8 6 6 5 6 9 9 8 9 10 9 8 11 12 11 9 8 10 16 24 24 14 5 3 3 5 3 2 4 8 6 5 7 3 2 2 2 3 4 6 7 7 8 9 7 5 5 5 6 8 10 12
16 18 19 19 20 22 23 24 21 18 16 13 11 10 9 12 12 11 14 14 15 12 3 5 7 7 9 9 11 15 11 9 11 10 10 9 6 5 7 8 9 9 7 9 11 11 9 9 12 12 8 8 14 17 18 16 8 3 2 4 5 5 1 4 8 6 5 6 6 4 3 2 2 5 6 7 7 7 7 5 4 6 7 10 12 9 9
13 14 15 15 15 16 17 20 20 18 15 12 10 8 7 10 11 13 19 22 24 18 11 10 7 8 12 12 13 15 11 14 24 22 18 17 11 7 9 11 12 9 7 9 12 13 10 7 7 8 7 8 13 17 19 14 6 4 4 6 6 3 3 3 5 7 8 7 8 7 4 2 2 4 6 7 7 8 7 6 6 8 10 12 13 10 10
11 12 13 13 13 13 13 14 14 14 16 14 11 8 7 6 5 6 13 25 32 27 23 20 11 7 11 9 10 15 12 14 26 27 19 19 19 14 9 9 9 8 10 11 12 13 13 10 7 7 9 8 8 15 20 16 11 14 15 13 6 2 1 5 8 9 8 8 9 9 9 8 7 6 8 8 8 9 7 5 8 9 10 12 12 12 14
9 10 11 11 12 12 11 10 10 10 11 14 11 9 9 7 4 4 6 14 21 21 22 21 12 9 12 6 5 14 16 11 15 19 16 19 21 15 10 10 9 8 12 12 11 13 14 14 13 13 13 11 10 15 18 15 18 20 14 9 4 2 4 12 15 16 15 15 16 16 15 16 15 14 14 12 10 10 9 10 12 12 12 13 12 14 18
9 9 9 10 10 11 11 10 9 9 8 12 11 10 11 9 6 9 8 4 6 10 15 18 14 13 15 8 6 13 16 12 11 13 16 20 18 11 8 15 18 17 17 12 10 12 12 13 14 13 13 12 11 13 12 14 22 21 10 6 5 3 7 13 15 18 19 18 19 20 19 19 19 17 18 18 17 14 13 16 19 17 15 14 14 19 23
11 10 10 9 9 9 10 10 9 9 8 9 11 11 13 12 10 13 12 6 3 7 10 12 12 13 13 10 10 13 16 17 14 10 9 12 14 13 12 14 18 21 21 16 13 12 12 13 13 12 14 15 11 9 9 13 19 17 9 6 7 5 6 11 14 15 16 18 20 22 23 22 22 21 21 20 21 21 20 21 21 20 19 18 21 25 25
12 12 11 10 10 9 9 9 9 9 9 7 10 13 13 12 9 10 12 9 8 12 12 7 6 8 9 8 8 12 16 18 16 12 12 10 10 15 19 20 20 20 21 20 18 17 17 18 17 15 13 11 8 7 8 9 9 10 8 6 8 9 8 11 13 11 14 20 22 23 24 23 24 26 23 21 23 26 27 23 18 18 21 23 24 23 20
13 13 12 11 12 11 10 8 7 8 8 8 9 13 14 15 13 11 10 6 7 10 10 7 6 5 5 6 7 9 14 16 15 15 18 18 14 12 15 18 17 17 19 20 21 22 24 25 26 26 21 16 13 10 8 8 7 6 7 6 8 9 8 8 9 8 11 18 23 25 25 24 24 25 23 24 27 27 23 19 18 20 22 23 23 18 15
14 13 13 12 12 11 10 10 8 7 7 8 9 10 11 14 16 14 10 5 5 7 7 7 8 6 6 9 9 10 13 13 13 13 15 20 23 22 20 18 14 14 18 20 22 26 28 28 30 32 29 26 24 20 16 16 13 7 6 6 7 8 8 7 8 8 10 15 20 22 19 17 16 17 23 30 32 27 21 19 23 25 21 18 17 16 18
15 15 14 13 13 13 11 11 11 9 8 7 10 12 12 12 13 13 9 4 6 8 7 7 8 7 8 12 11 10 12 12 12 11 9 11 18 24 22 18 14 13 13 16 21 26 29 30 31 31 30 28 26 26 23 20 16 10 6 4 4 9 10 9 7 7 9 13 15 14 11 11 10 14 24 33 32 28 25 25 29 30 24 19 19 20 22
16 16 16 15 15 14 14 13 13 12 11 10 12 13 13 12 14 12 7 4 6 8 7 10 11 10 13 16 14 12 14 16 18 19 15 12 18 25 22 15 11 9 14 24 32 35 31 27 25 24 23 22 21 21 22 20 19 17 14 10 8 9 10 9 7 6 8 9 10 10 11 10 10 15 23 27 27 29 30 30 31 30 27 25 25 24 22
17 17 17 17 16 16 16 16 15 14 14 13 14 15 13 12 12 10 7 4 5 7 7 10 15 18 19 17 15 16 20 23 26 28 24 16 15 19 19 13 10 15 25 31 32 27 19 14 13 14 14 14 14 16 20 23 23 22 21 17 14 13 10 7 6 7 6 6 8 11 10 5 5 11 15 17 19 23 25 26 28 28 27 26 24 23 22
18 18 17 18 18 18 17 17 17 16 15 14 16 17 16 14 13 12 9 5 5 7 8 7 9 14 15 12 12 14 16 18 20 21 19 16 14 14 16 16 18 24 27 26 21 14 7 6 8 9 9 8 8 10 15 21 24 25 25 21 18 17 13 8 7 7 8 10 12 13 14 9 5 8 11 15 17 18 18 20 22 22 22 22 21 21 23
18 19 19 19 20 19 19 18 18 17 17 16 17 18 17 16 16 15 13 9 6 8 11 10 8 8 7 7 9 9 8 9 11 12 16 19 16 13 14 18 22 25 23 15 8 5 4 6 7 7 7 7 7 7 6 8 12 21 28 25 21 20 17 13 11 8 10 14 12 9 13 13 10 12 15 18 21 22 19 19 17 13 13 17 21 23 26
19 19 19 19 20 20 20 20 20 19 19 18 20 21 20 19 18 18 17 14 8 6 10 12 11 9 7 7 9 9 7 6 6 7 10 11 9 12 18 21 21 22 21 12 4 3 4 7 8 8 8 6 7 6 4 2 3 9 19 25 25 22 18 16 13 9 10 15 12 9 11 9 8 14 16 18 21 19 13 15 14 8 12 18 21 22 24
20 20 20 19 20 20 20 20 20 20 20 20 22 23 23 22 20 19 20 19 13 12 18 18 13 10 8 7 8 8 8 8 6 5 5 5 9 15 20 20 20 24 21 10 3 4 6 8 8 9 10 8 8 10 8 6 5 3 8 16 21 20 15 14 15 12 13 15 12 9 9 5 7 11 12 17 22 14 9 14 11 7 15 22 21 21 22
22 22 21 21 21 20 20 21 21 21 21 21 22 24 24 24 22 20 22 22 14 12 23 25 19 14 12 9 8 8 8 9 7 5 5 6 7 9 13 15 16 21 20 8 3 5 7 7 8 11 11 9 9 10 9 8 7 4 3 5 10 12 10 12 15 14 14 16 12 8 7 5 7 11 12 15 16 10 10 14 9 3 5 12 12 13 15
23 23 23 22 22 21 21 21 21 21 22 21 21 25 26 25 24 23 24 24 17 13 21 23 18 16 16 15 14 13 12 11 9 5 4 5 7 11 16 15 10 9 11 6 3 5 7 6 6 7 7 6 6 5 5 5 4 6 8 7 5 5 5 6 10 12 13 14 12 11 8 2 6 9 12 10 6 4 7 9 16 17 14 22 24 19 21
23 23 24 23 23 23 22 22 22 22 22 21 21 26 28 26 26 25 25 26 23 20 26 31 26 22 21 21 20 18 13 11 10 6 4 6 9 12 12 9 3 0 3 5 4 4 6 6 4 3 3 4 5 4 5 5 4 3 5 7 5 4 6 6 5 7 8 9 9 8 5 7 17 14 7 0 3 6 11 12 17 19 20 24 25 23 25
25 24 25 24 24 24 24 23 23 23 23 22 22 25 28 27 26 26 27 28 25 20 23 27 24 20 21 24 26 24 19 17 16 11 9 12 11 5 2 3 4 2 1 4 5 3 4 5 4 3 4 4 4 5 7 9 11 9 5 6 6 5 4 4 4 4 4 4 4 2 1 6 13 10 3 5 13 20 18 12 11 16 21 21 20 22 25
27 26 26 25 25 26 25 25 25 24 24 24 22 24 28 27 26 25 25 28 29 27 27 28 25 22 23 25 26 26 24 23 23 19 15 14 12 11 12 9 7 7 7 5 4 4 4 5 4 5 6 5 5 9 9 8 12 12 5 5 4 4 3 3 5 6 3 4 9 10 8 10 16 15 11 17 28 29 19 13 13 16 20 20 19 20 24
28 28 28 27 27 27 26 26 25 25 24 24 24 25 26 26 25 24 23 26 30 32 33 34 31 28 30 33 33 31 30 29 29 28 25 19 14 14 17 15 12 13 14 11 8 4 4 5 5 6 7 6 6 10 11 8 8 9 7 6 5 7 8 6 4 6 7 7 11 13 13 18 30 36 34 32 30 22 15 17 19 20 23 24 21 21 25
29 29 29 29 28 28 27 26 26 25 25 25 25 25 25 26 25 24 23 26 27 24 23 26 30 31 33 35 34 32 32 32 31 30 29 25 17 11 14 18 17 13 14 16 16 11 7 5 4 5 6 5 5 7 9 8 6 6 9 9 5 6 9 9 6 8 11 9 10 12 16 24 34 40 38 29 20 18 23 28 27 27 30 30 27 27 29
30 29 29 29 29 28 28 27 26 25 25 25 26 25 26 27 26 25 24 24 23 17 9 12 24 32 30 27 26 28 29 28 25 24 24 25 24 19 19 23 21 16 17 20 19 14 9 5 4 5 6 7 8 7 7 8 7 7 9 8 6 9 12 11 9 10 11 12 14 18 21 25 27 27 23 21 23 28 32 31 28 29 31 31 31 31 31
29 29 29 28 28 29 29 28 26 26 25 25 25 27 29 29 27 26 27 26 25 21 10 8 20 29 24 21 25 29 28 26 24 25 25 24 24 25 26 27 25 22 23 23 20 16 11 5 4 5 6 8 9 6 6 7 7 7 8 9 11 14 14 10 9 11 12 12 11 13 16 18 21 21 20 23 29 33 32 31 31 32 31 31 31 30 29
29 29 29 29 28 28 28 27 27 26 25 25 25 27 29 30 28 27 29 26 21 15 7 6 15 21 19 21 27 29 28 26 23 24 26 25 24 25 26 26 26 25 24 21 19 17 10 4 5 7 7 9 10 6 6 9 8 7 9 10 11 11 11 10 9 9 10 10 10 13 13 13 18 22 23 25 28 32 35 37 37 34 31 30 30 31 32
30 29 29 28 27 26 27 27 26 26 25 25 27 27 28 30 30 30 31 30 26 19 12 11 13 14 12 16 21 21 22 23 22 23 25 26 25 25 25 25 26 26 22 18 14 10 6 5 7 7 6 9 9 6 6 8 7 6 7 9 10 10 9 10 9 9 12 14 16 17 12 9 17 26 30 29 30 34 37 37 36 33 31 31 31 34 37
29 28 28 28 26 26 27 27 26 27 26 25 26 27 30 33 32 30 30 30 31 30 25 19 16 16 17 18 19 19 18 18 19 22 23 23 24 25 25 27 28 27 25 21 14 7 6 9 10 10 11 11 8 4 5 6 6 7 9 12 17 19 20 20 18 15 14 15 18 18 14 14 20 28 30 29 29 32 32 32 32 33 34 35 35 35 35
28 27 27 26 26 26 27 27 27 27 26 25 25 25 25 27 30 32 31 29 30 30 24 14 8 11 17 20 21 23 23 21 20 22 23 24 25 26 26 27 28 27 24 21 15 10 7 8 11 15 21 20 10 3 4 6 6 7 11 16 22 26 27 25 20 13 12 14 19 22 22 24 27 30 31 30 32 35 35 33 31 31 32 34 37 37 37
28 27 26 26 26 27 27 28 27 27 27 27 25 20 13 12 18 24 24 25 29 30 24 14 8 9 13 17 22 26 26 25 24 25 26 26 27 27 27 26 26 26 24 20 18 15 11 9 8 11 18 21 13 4 4 7 7 7 11 19 25 23 19 18 17 15 16 21 28 30 30 31 31 30 30 33 37 38 37 37 35 32 32 34 37 39 39
27 27 26 26 27 27 27 28 28 28 28 29 30 28 22 17 17 16 12 13 22 27 21 11 6 5 4 7 16 24 25 24 25 25 24 25 26 25 25 25 25 26 25 21 15 12 12 13 11 10 15 20 15 6 5 7 7 8 14 22 23 17 12 15 19 18 18 23 26 23 23 29 30 25 23 31 36 36 35 38 39 37 38 40 41 41 41
26 26 26 26 27 27 27 28 28 28 29 30 32 35 35 31 27 23 15 11 17 23 18 8 2 3 3 2 7 14 17 18 21 21 20 23 25 22 20 24 25 22 20 17 12 7 9 13 11 9 15 19 12 4 5 7 10 15 21 21 16 11 13 18 19 17 19 23 21 12 12 23 28 26 26 32 36 37 37 39 39 41 44 45 44 45 46
26 25 25 25 26 26 27 27 28 28 29 30 31 33 33 32 31 31 25 18 15 16 15 9 2 2 4 2 1 8 15 15 15 15 14 17 22 20 16 17 18 14 12 15 15 10 8 9 8 7 10 12 8 5 6 9 13 17 18 13 11 16 21 21 17 17 21 24 22 18 16 19 24 30 35 37 37 37 38 38 38 39 42 44 45 46 46
25 25 24 25 26 26 26 28 29 29 28 28 30 31 30 28 28 30 30 25 17 10 8 8 5 3 4 3 2 7 15 15 14 14 13 13 18 21 15 9 8 9 10 13 12 7 6 9 9 6 5 5 5 6 7 8 9 9 7 8 13 18 18 16 16 22 26 26 27 26 19 15 22 33 39 40 39 37 38 39 39 36 36 41 47 48 47
24 24 24 24 25 25 26 27 27 27 27 27 28 27 25 22 23 26 29 30 24 14 6 5 5 4 4 4 3 6 10 11 12 15 14 10 11 16 15 8 4 7 10 8 4 4 9 15 11 4 3 5 6 6 7 7 5 3 3 8 12 12 11 11 16 23 28 30 29 23 17 18 28 33 35 39 43 41 40 41 40 36 37 42 48 49 50
23 22 22 23 23 22 22 23 25 25 25 25 24 21 18 17 18 21 26 30 31 25 15 5 3 6 7 4 3 5 8 8 10 10 9 6 6 9 11 7 3 5 7 5 3 7 14 15 9 3 4 7 7 7 7 6 4 4 4 6 9 10 11 13 16 21 28 32 30 24 22 29 35 32 29 35 42 44 43 43 41 37 38 43 47 50 52
21 20 20 19 17 13 12 16 21 21 19 19 18 15 13 14 13 13 17 20 21 22 19 9 5 9 9 5 5 9 9 6 5 5 5 5 5 4 5 5 4 4 3 3 8 12 11 8 5 4 6 6 5 7 8 6 3 3 3 6 10 11 13 14 15 17 21 23 25 26 30 36 41 39 36 36 41 44 45 44 42 40 39 41 43 47 51
19 18 16 15 14 13 11 11 13 13 13 16 14 9 8 11 8 5 7 9 7 10 13 10 9 13 11 4 6 13 12 6 2 2 4 5 4 2 1 2 4 4 1 2 7 9 6 3 3 4 5 5 5 7 8 5 2 1 4 10 12 13 14 16 16 15 15 17 21 24 25 27 33 41 44 44 46 50 49 47 44 43 42 43 44 45 48
18 15 13 13 15 17 15 11 8 10 13 13 10 6 4 7 6 3 3 4 2 3 7 8 10 16 18 11 7 10 12 9 5 3 4 5 5 3 2 1 1 2 1 3 5 7 4 3 3 4 5 5 3 7 6 2 2 3 9 14 16 16 17 18 18 17 19 22 25 27 26 25 29 35 41 43 45 49 52 53 50 47 45 47 48 46 46
18 15 14 14 16 17 15 11 9 10 10 8 5 3 2 3 3 2 2 2 2 3 7 8 6 8 15 16 10 5 7 9 7 3 2 4 5 4 3 2 0 2 1 4 4 3 2 3 3 4 4 1 5 7 3 3 7 10 14 18 18 18 21 24 24 23 24 26 29 30 30 31 32 34 38 41 42 45 49 52 53 51 48 47 48 48 47
19 17 16 16 15 12 11 11 11 9 6 4 3 2 1 1 2 1 1 2 2 2 6 9 6 4 7 12 10 6 5 6 5 3 2 3 4 3 2 1 0 1 3 4 2 1 1 3 4 4 2 5 8 5 4 9 13 16 20 21 21 22 24 27 29 29 27 29 32 34 34 34 35 36 37 40 42 45 46 47 49 51 50 47 48 48 47
19 18 15 13 11 8 7 8 8 6 2 1 2 2 1 1 2 1 1 3 3 2 5 8 7 4 4 6 6 5 6 6 5 3 2 1 1 2 1 1 2 2 2 2 1 1 3 4 4 2 2 6 6 6 11 16 19 22 24 24 24 27 28 28 30 32 32 31 32 35 36 36 37 38 37 38 40 44 46 44 44 47 49 49 48 46 44
19 17 13 9 8 7 6 5 6 6 3 2 3 3 2 2 3 3 3 2 2 2 4 6 5 4 4 4 5 4 5 5 4 2 1 2 1 1 1 2 3 2 0 0 1 3 4 3 1 1 3 4 8 13 18 22 25 27 29 30 28 29 31 32 33 35 36 36 35 36 37 38 39 40 39 37 37 39 43 44 44 44 46 46 45 45 43
16 13 9 5 4 5 5 3 3 3 3 3 4 4 3 3 4 3 2 1 3 3 3 4 4 3 3 3 4 3 4 3 3 2 1 1 0 1 2 3 2 0 0 1 2 3 3 2 1 3 5 8 14 20 23 25 27 29 33 36 36 34 34 36 36 37 38 39 39 39 39 40 40 41 40 38 35 36 40 44 44 43 42 42 43 43 42
13 10 7 3 2 3 3 1 1 2 2 2 1 1 1 1 2 2 2 3 4 4 4 4 3 2 3 3 3 4 4 4 2 1 1 2 1 3 3 1 0 0 1 3 4 4 4 2 2 4 9 15 20 23 25 27 28 29 31 36 39 40 38 38 39 40 41 41 40 40 41 41 41 40 39 38 38 38 39 40 40 39 39 39 40 40 40
9 7 5 2 1 2 2 1 2 2 2 3 4 5 5 6 7 7 4 3 2 2 1 1 1 2 4 3 3 3 4 3 2 1 2 2 1 2 1 1 1 2 3 4 5 5 2 0 3 9 16 19 22 26 28 29 30 30 32 35 38 40 40 40 41 41 42 42 42 42 42 41 40 39 39 39 39 39 38 38 37 36 35 35 36 37 36
8 5 4 2 1 1 2 3 4 4 4 5 6 6 5 6 6 6 5 3 3 2 1 1 1 1 2 3 3 2 2 2 1 1 2 2 1 1 1 1 3 3 3 4 4 2 1 3 10 16 20 21 24 28 31 32 33 33 34 36 38 39 40 41 41 41 42 42 42 42 41 40 39 39 39 39 40 39 36 35 35 33 32 32 32 31 29
9 6 3 1 0 1 2 3 5 4 4 6 7 7 6 6 5 5 6 5 5 5 4 3 3 1 0 1 2 1 1 2 1 1 1 2 2 1 2 3 4 4 2 1 0 1 5 12 18 21 22 23 26 30 33 34 35 35 36 37 39 39 39 40 41 41 42 41 41 40 39 38 38 37 38 38 39 38 36 34 33 30 28 28 27 26 26
7 4 1 0 1 2 2 3 3 3 3 5 5 5 6 6 6 5 6 6 6 5 4 3 2 1 0 1 0 1 2 2 1 1 2 2 2 2 3 4 5 4 1 1 3 7 14 20 23 24 26 28 31 32 34 35 36 37 37 38 38 38 37 38 40 41 40 39 38 37 36 35 36 37 37 37 37 36 35 32 28 26 26 25 23 22 22
4 3 3 3 3 3 2 3 3 3 3 3 4 4 4 4 3 3 3 4 4 3 2 1 1 1 1 2 2 1 1 1 1 2 3 3 2 3 5 5 3 1 2 7 11 16 20 22 22 25 31 35 35 35 35 36 37 37 38 38 38 38 38 39 39 39 38 36 35 34 34 34 34 34 34 33 33 32 31 29 26 25 24 22 19 18 18
3 3 4 6 7 7 5 4 4 5 5 5 4 3 3 3 2 1 1 1 1 1 1 1 1 1 2 2 1 0 1 1 1 3 3 1 1 0 3 3 1 3 9 15 19 21 21 22 23 26 31 35 36 36 36 36 37 37 38 38 38 38 38 38 37 36 35 34 32 31 32 32 31 30 30 29 28 27 27 28 26 24 21 19 16 15 15
Wind_Direction
281 281 280 280 278 277 276 275 277 277 277 278 270 263 254 238 242 253 254 245 204 174 164 203 193 203 242 248 262 256 246 255 267 264 254 250 248 240 251 253 244 245 245 257 275 276 273 275 272 279 298 292 289 314 326 328 334 332 296 289 283 265 146 239 256 266 290 283 278 347 324 267 270 261 228 219 219 217 228 236 244 245 219 225 246 245 256
283 285 286 287 284 282 280 276 273 275 281 282 269 258 245 244 248 239 238 232 202 183 180 207 205 226 239 245 253 247 242 243 248 250 239 227 212 218 242 242 236 235 231 241 253 256 259 259 261 271 284 286 288 302 319 329 340 349 25 36 347 321 293 252 261 267 287 289 276 282 336 8 253 253 246 238 242 249 259 272 273 257 239 240 253 252 260
294 290 290 293 292 292 290 283 273 266 270 274 263 248 245 254 251 236 228 213 202 207 220 216 212 217 225 234 238 239 245 235 233 238 241 232 218 222 237 227 225 232 235 241 240 238 247 255 258 265 265 273 279 280 285 293 298 292 327 21 19 330 309 311 280 258 254 258 257 257 281 304 258 261 264 259 258 253 255 265 259 254 249 247 254 264 269
311 310 305 301 300 298 295 296 292 272 260 259 253 234 234 251 241 222 212 200 203 218 226 224 225 210 219 234 228 231 243 238 235 239 246 244 234 232 237 221 217 223 228 240 243 237 241 243 242 247 245 252 260 256 261 268 272 283 303 326 349 94 211 284 272 266 265 261 269 286 295 281 273 274 260 255 261 254 251 257 253 258 264 255 253 268 274
298 310 315 315 316 311 303 307 318 305 263 243 242 237 232 244 235 208 202 197 208 221 221 220 225 211 214 215 197 226 238 242 239 233 232 238 235 234 237 223 220 222 221 231 240 236 237 236 238 243 242 242 246 247 251 259 266 273 283 289 282 144 233 256 256 258 262 265 272 283 287 276 271 275 274 275 272 256 247 250 250 255 263 259 256 265 268
285 287 294 306 317 320 318 315 321 330 289 242 242 244 229 235 249 234 234 216 206 221 219 221 228 223 220 220 217 234 239 236 230 224 227 231 227 224 229 221 224 229 227 228 232 230 235 237 234 240 243 244 251 251 246 242 247 253 250 221 211 216 238 239 243 249 250 256 263 266 270 270 266 266 268 272 272 263 255 252 250 248 251 258 257 253 256
291 285 278 281 297 310 321 320 313 323 314 257 240 240 235 245 267 265 269 276 243 255 251 238 236 233 232 233 231 240 245 242 237 229 234 235 219 218 231 226 223 227 228 231 234 229 235 240 234 230 234 236 240 249 248 237 233 233 235 218 195 208 230 220 229 244 241 241 247 248 253 260 263 261 258 260 266 265 257 252 251 252 254 257 256 253 254
292 292 284 271 273 281 295 315 314 312 320 294 246 241 239 241 263 292 300 298 284 281 277 265 256 249 242 239 234 240 246 249 250 241 238 246 225 216 231 236 229 226 226 228 232 229 229 239 241 235 234 232 227 235 242 240 226 211 220 222 195 202 213 206 219 242 239 235 239 239 241 246 253 258 259 258 258 256 252 252 256 260 260 256 254 257 258
286 289 290 280 274 273 273 290 305 302 312 310 272 253 243 244 264 297 312 307 289 283 273 261 265 252 236 241 240 243 246 249 257 254 246 252 253 237 242 248 244 243 240 236 237 236 232 236 240 239 242 238 223 218 211 208 214 207 207 208 189 196 213 207 213 240 236 230 235 238 238 240 244 251 258 257 251 249 248 248 248 248 252 255 256 257 257
286 283 287 287 280 278 276 276 280 279 287 295 284 268 259 262 275 288 299 300 275 278 283 278 273 262 250 253 248 250 260 259 262 267 257 251 254 254 255 261 262 257 254 250 252 254 252 254 255 255 261 261 251 248 237 217 216 212 200 203 190 191 213 214 210 236 239 227 232 236 234 238 237 232 239 245 246 248 248 247 247 245 244 248 251 248 249
282 279 279 280 279 281 280 275 271 265 259 264 270 269 269 273 282 289 296 292 265 271 278 266 267 278 280 280 281 278 283 283 274 274 268 258 269 274 275 277 271 260 271 291 301 301 294 287 283 279 278 276 270 267 263 248 241 234 213 211 199 194 210 220 214 235 244 230 233 238 232 233 226 205 219 233 240 244 244 240 240 240 238 238 241 244 248
276 276 275 276 277 279 276 271 269 261 252 251 258 266 269 269 273 275 270 264 270 272 267 257 264 283 288 288 295 297 296 295 291 288 290 294 299 301 303 299 281 287 321 325 325 323 314 299 291 282 270 265 261 260 262 258 251 241 227 221 223 214 214 222 222 233 243 233 233 241 234 228 220 210 216 228 235 238 242 243 241 241 243 244 245 247 249
274 274 275 275 277 278 273 269 265 258 252 250 252 260 266 266 265 258 244 257 272 260 266 273 271 274 279 283 291 295 294 293 292 290 290 291 298 303 307 307 305 322 330 327 323 322 314 298 289 277 265 261 255 247 244 243 242 238 229 220 222 225 219 219 225 228 237 232 220 235 253 255 206 210 215 223 233 237 242 249 247 243 244 248 250 252 251
273 273 273 273 275 275 271 267 264 258 252 250 251 256 258 258 258 253 241 241 258 261 274 290 278 274 281 290 297 297 296 297 297 293 291 294 298 299 306 318 324 327 330 328 323 317 301 286 284 274 261 256 255 245 235 235 235 232 229 224 219 222 225 227 227 215 221 238 233 240 262 264 211 199 202 208 222 227 232 248 249 238 237 244 248 252 251
274 274 274 273 273 272 269 265 263 259 254 251 251 252 253 253 256 255 246 238 257 273 266 259 264 283 307 318 313 308 304 301 298 293 289 290 290 293 313 328 330 332 339 338 317 295 286 281 279 275 265 253 259 257 230 232 234 226 227 227 219 220 223 223 227 218 216 239 246 242 251 247 223 216 212 210 225 230 231 249 254 230 223 237 240 242 244
273 273 273 272 271 269 268 265 262 259 256 252 251 250 250 249 252 255 253 245 242 258 251 246 259 281 296 296 287 286 292 291 295 299 289 287 304 323 329 330 330 337 349 349 301 256 269 268 267 270 270 268 280 281 257 276 285 228 226 227 223 223 224 222 231 230 217 233 242 234 243 246 210 215 219 217 229 236 242 260 262 219 214 235 239 242 245
272 273 272 271 270 268 268 266 263 259 255 252 252 252 251 249 249 253 254 246 237 250 257 256 264 277 281 280 270 264 269 274 285 295 280 302 336 328 324 328 330 333 340 341 290 269 268 266 276 277 272 273 281 283 277 269 276 254 230 229 224 223 223 223 230 229 222 233 239 234 247 242 179 197 213 217 223 227 239 257 258 193 209 230 234 240 248
272 272 272 271 269 269 268 266 264 262 258 254 253 254 253 249 247 248 250 247 238 250 260 260 260 258 252 258 269 270 270 275 284 287 283 299 309 309 325 337 328 320 322 316 269 294 290 279 283 279 278 283 274 276 289 282 272 297 328 266 237 231 228 224 228 233 230 232 240 248 247 226 196 202 201 205 218 223 230 254 294 4 263 284 290 278 291
271 271 271 270 269 268 268 267 266 263 260 255 252 254 253 250 247 246 248 248 244 251 261 260 255 249 248 255 263 266 266 264 261 270 291 292 287 304 320 319 294 291 309 297 257 286 282 275 290 287 289 306 291 289 320 308 296 346 352 331 289 261 258 234 228 235 233 229 242 252 245 338 345 270 229 198 193 229 251 302 355 13 10 4 2 358 360
270 269 270 270 269 268 267 266 265 264 263 260 255 255 255 253 250 248 246 247 250 256 262 261 259 257 256 254 253 253 253 247 245 249 254 269 297 321 323 306 277 351 317 280 265 284 278 280 312 313 291 308 307 309 321 300 280 312 315 298 293 295 300 290 255 248 248 239 241 237 233 4 3 338 297 127 44 322 314 334 358 11 19 14 4 0 4
268 268 268 269 268 268 267 266 264 263 263 261 256 256 258 257 255 252 249 249 249 252 260 262 261 255 249 250 252 252 251 250 250 249 250 264 287 312 284 285 322 16 322 285 276 274 283 291 302 287 277 297 301 291 302 304 297 288 255 250 275 277 270 292 310 328 321 274 276 308 277 336 353 357 354 343 332 325 328 341 350 359 9 7 355 351 353
267 266 267 267 267 267 267 266 264 263 262 261 257 255 257 258 257 255 252 249 246 248 255 258 258 254 250 252 256 254 251 251 250 248 252 261 263 249 244 265 281 256 252 280 278 262 273 275 273 275 276 281 284 280 278 281 289 293 267 217 260 286 286 290 285 288 296 263 276 298 306 310 320 318 305 315 318 314 323 352 352 342 347 348 341 338 339
265 265 266 266 267 267 267 266 265 263 263 263 260 254 255 261 262 258 255 253 251 253 258 260 261 262 259 258 260 259 256 254 253 253 254 253 251 250 249 251 258 257 253 252 255 271 285 270 268 277 275 270 271 275 272 261 264 283 277 254 281 313 311 296 270 289 311 283 261 280 308 316 313 309 307 312 313 305 320 348 343 331 331 331 327 326 327
264 265 266 265 266 266 266 267 266 265 264 264 262 259 260 263 263 258 255 255 253 254 260 258 253 253 257 260 263 264 262 260 260 260 256 248 241 247 251 248 250 252 250 252 257 261 264 267 271 264 262 271 273 271 277 278 273 286 288 282 295 317 304 292 291 308 313 295 274 291 306 303 301 303 308 316 325 330 336 337 331 325 324 323 319 319 319
263 265 265 265 265 265 265 266 265 264 263 263 264 264 262 261 259 256 252 249 247 248 255 252 248 253 261 265 262 261 262 260 256 255 253 243 235 235 245 250 249 248 256 263 263 256 249 258 270 266 266 275 279 276 273 278 288 298 296 294 301 305 305 304 299 292 286 281 287 295 295 293 294 299 312 331 341 339 336 334 332 330 327 325 324 322 320
262 264 264 264 263 264 265 265 265 264 264 265 265 264 263 262 262 258 252 248 249 252 251 249 258 263 263 255 253 259 262 258 251 248 246 240 235 239 247 254 256 257 262 265 261 252 248 249 255 262 266 261 262 269 271 279 295 296 284 284 289 291 294 295 289 287 283 278 287 299 304 308 309 311 327 343 342 338 339 340 339 338 335 332 330 327 325
262 263 264 263 262 262 263 264 265 266 267 268 265 263 263 262 260 257 253 247 243 246 246 244 261 266 261 252 255 260 259 255 251 244 240 238 240 243 244 246 251 255 257 259 258 251 247 246 243 245 255 263 266 273 273 272 277 276 273 280 282 278 279 280 283 289 286 288 314 330 328 317 311 320 343 357 349 340 339 339 338 339 338 335 331 327 323
263 263 262 262 261 262 262 262 263 265 267 269 268 267 267 264 260 258 255 245 234 236 251 258 259 267 274 268 260 253 247 246 242 237 237 239 239 238 237 238 243 248 248 249 251 246 232 236 244 240 245 259 262 262 261 261 261 258 261 265 264 263 271 282 288 287 286 304 335 348 341 312 309 324 340 348 342 337 337 335 334 333 330 328 324 320 317
262 261 260 260 261 261 262 263 265 265 266 267 268 268 268 265 261 256 251 244 239 241 250 259 260 259 262 262 253 244 240 239 233 231 234 236 233 231 233 235 237 240 242 243 244 243 238 239 242 244 247 251 255 260 259 259 257 255 256 262 266 270 275 280 284 287 293 318 348 353 337 312 310 321 330 333 334 335 334 330 327 326 324 323 320 316 314
260 259 259 259 261 262 263 265 265 266 266 264 262 261 262 263 261 255 248 244 242 240 240 247 258 256 256 255 250 247 245 239 233 233 235 237 237 235 234 235 235 237 241 244 243 246 249 243 241 245 248 250 251 253 256 257 255 254 262 267 269 273 279 284 292 307 319 327 335 333 322 313 314 320 325 327 331 334 332 327 326 326 324 323 320 317 315
259 260 259 260 262 263 265 267 266 265 265 260 252 247 243 251 262 260 253 246 241 236 234 240 253 260 262 257 252 252 250 240 235 237 238 238 240 239 235 235 236 235 237 241 244 245 246 245 244 245 247 248 249 250 256 259 261 263 266 269 273 279 287 295 309 325 324 318 321 322 318 316 320 324 325 327 331 332 328 326 327 326 323 322 321 318 317
258 259 259 262 264 264 266 268 267 266 264 256 248 246 245 245 255 261 257 238 228 225 224 233 248 250 253 247 245 248 248 241 235 236 235 234 235 237 236 235 236 236 236 239 246 248 241 240 241 244 249 251 254 260 258 254 260 270 270 272 279 287 294 299 308 316 315 319 329 330 318 316 324 327 322 323 327 328 326 326 326 324 322 323 323 321 320
259 259 261 264 265 265 266 268 267 267 266 261 258 256 252 249 249 248 237 211 209 215 218 222 249 242 222 231 241 232 227 228 228 227 229 230 227 228 231 232 233 237 237 235 240 243 233 235 240 247 251 251 250 255 260 255 260 268 271 275 284 297 303 305 308 308 310 322 335 333 303 308 318 320 316 318 323 328 329 327 324 322 322 323 322 322 321
259 261 263 265 265 266 269 269 268 268 266 264 261 257 252 250 249 244 235 219 208 215 219 214 214 253 226 228 250 206 201 206 211 210 215 223 220 219 225 231 233 235 229 226 234 241 239 239 245 250 251 249 242 245 257 255 257 265 273 283 298 307 312 314 309 304 311 323 328 321 311 311 315 317 319 320 323 327 327 323 321 321 320 319 318 318 318
259 262 265 266 267 270 270 268 269 268 262 259 259 258 255 253 247 240 236 229 219 214 218 211 211 236 224 220 245 212 207 213 217 214 215 221 220 219 220 223 231 233 223 223 233 243 246 246 247 248 249 241 233 245 254 255 259 270 291 308 310 316 322 318 310 312 318 322 324 324 325 318 311 314 319 321 322 322 321 320 320 320 316 314 315 317 317
259 263 266 268 271 273 271 268 267 263 256 256 258 258 257 250 240 236 237 232 223 216 206 193 196 206 212 231 245 208 204 215 223 223 225 228 223 218 212 203 225 238 229 224 222 226 239 244 243 243 239 233 238 251 249 245 250 263 297 309 315 326 331 315 310 317 320 320 324 328 324 312 311 315 318 320 320 320 319 319 320 320 316 314 315 315 315
259 262 266 269 272 273 271 267 262 257 254 254 252 249 244 235 227 226 226 224 224 223 217 208 218 209 205 228 232 178 180 201 212 214 221 223 213 209 202 193 222 241 229 222 214 225 238 243 239 234 243 241 245 249 236 227 238 249 269 312 324 329 328 322 322 324 323 322 325 329 324 319 319 318 315 315 317 318 318 317 318 318 315 314 314 314 314
258 261 265 268 267 261 260 263 260 257 251 242 234 228 219 210 210 216 213 212 220 222 213 209 234 220 210 229 223 191 187 201 208 206 210 204 199 206 198 191 211 221 217 236 233 230 237 242 225 226 244 241 227 222 218 211 214 235 279 335 336 331 331 331 327 326 325 322 322 325 326 324 321 319 317 315 314 314 313 313 313 315 313 311 311 311 311
256 259 259 255 244 232 237 257 260 250 234 221 211 200 192 190 191 206 207 200 207 208 198 202 227 220 209 220 229 213 211 220 242 240 222 200 190 203 213 203 206 200 204 267 226 209 210 239 222 220 245 245 212 198 201 197 178 227 318 339 340 335 334 331 324 316 308 300 300 307 310 308 307 310 312 312 311 311 312 310 311 312 311 309 309 308 306
251 251 245 238 234 234 240 250 241 217 211 207 195 177 181 191 186 173 176 182 193 188 180 190 218 217 211 215 229 224 220 224 231 238 228 212 202 197 210 240 197 148 184 259 211 178 181 236 224 212 243 252 195 164 172 171 32 345 331 336 339 335 330 327 323 314 305 299 299 301 299 295 294 298 301 304 306 307 308 309 309 309 308 308 307 306 304
243 240 237 236 236 233 230 225 207 196 196 193 184 182 193 186 184 180 159 166 210 218 196 190 197 208 207 209 212 221 236 244 251 253 226 222 218 199 201 248 271 109 206 247 223 178 204 239 223 225 243 213 107 123 134 0 351 337 331 335 337 333 328 325 323 320 316 311 308 305 303 302 300 298 299 301 301 301 302 304 306 306 306 307 306 305 305
244 242 239 237 234 222 207 198 192 190 190 181 176 198 204 148 153 188 197 193 210 212 193 191 186 174 189 198 201 212 237 246 244 220 195 223 221 201 199 246 127 151 227 235 213 154 227 230 232 238 207 91 89 85 13 351 340 331 332 334 332 330 328 325 322 321 320 315 311 310 308 306 303 302 303 304 302 300 300 301 302 304 305 305 305 305 305
244 238 228 221 215 202 192 189 183 179 192 198 170 175 189 158 148 160 206 211 216 196 180 182 176 156 163 180 191 206 217 215 207 199 199 227 203 170 158 247 214 209 230 232 204 227 234 233 242 240 114 86 64 18 355 345 335 330 332 333 330 329 327 323 320 319 319 316 313 312 311 308 306 306 305 303 302 301 301 300 301 303 304 306 306 306 307
226 219 204 193 190 186 185 184 173 169 184 206 180 176 192 186 179 187 196 192 188 183 177 168 154 144 159 166 167 187 207 207 195 184 203 234 223 152 160 229 226 217 7 271 228 232 232 230 241 76 76 46 5 349 343 338 335 333 331 330 329 329 326 324 321 319 318 318 317 315 312 310 309 308 307 305 302 302 302 302 303 304 305 307 307 308 310
195 188 176 171 181 179 170 161 151 163 192 203 184 183 200 203 195 197 193 118 65 63 79 95 105 126 154 153 156 187 201 177 152 156 174 179 215 208 216 227 228 113 47 232 233 242 246 230 108 62 29 350 337 336 335 334 334 334 330 327 328 328 325 324 323 320 318 319 319 317 314 312 310 309 308 307 305 302 301 303 306 308 308 309 309 310 313
181 174 168 175 204 183 171 179 197 191 204 203 163 159 192 182 131 112 108 92 81 80 78 73 82 133 166 158 169 202 197 169 160 198 162 124 171 231 223 207 74 79 229 231 234 243 246 212 107 26 353 335 328 328 330 330 330 330 327 325 325 325 324 323 322 320 319 319 318 316 313 312 311 311 310 308 307 306 305 306 309 311 310 310 311 312 312
181 180 175 180 198 170 168 189 179 154 127 81 64 67 92 107 98 90 100 123 118 118 155 179 189 208 208 191 184 204 198 174 171 196 152 134 214 258 214 111 204 209 212 232 242 244 233 128 354 339 334 329 326 326 327 327 327 326 324 321 321 321 322 321 320 319 319 319 317 315 314 313 312 312 311 309 309 310 311 311 313 314 313 311 310 311 311
170 161 156 169 203 197 193 171 136 104 84 84 81 75 91 116 108 82 76 93 98 91 103 93 45 313 231 187 171 194 201 153 154 212 180 156 202 262 211 226 236 218 212 238 245 220 77 350 327 324 324 324 324 324 324 324 324 323 321 320 320 320 320 320 319 319 319 317 316 314 314 314 314 313 311 310 311 313 315 316 317 317 315 312 310 312 317
178 170 165 197 87 78 109 136 125 98 86 102 101 84 83 105 103 63 48 57 68 69 67 66 60 38 293 159 148 193 211 163 152 202 185 174 203 231 216 224 235 237 238 247 187 43 339 327 324 322 320 321 323 323 322 322 321 320 320 320 320 320 319 319 318 317 317 316 316 315 315 315 315 313 312 312 313 316 319 320 319 318 317 315 316 320 323
181 161 109 35 113 102 93 103 111 113 113 110 91 63 60 77 76 53 43 51 62 69 75 87 105 132 256 298 147 220 228 199 167 186 211 209 211 221 232 240 243 240 249 9 350 326 321 323 323 321 319 321 323 322 320 319 319 319 320 320 320 319 318 317 316 316 317 317 317 317 317 317 316 314 313 314 316 317 318 319 320 320 322 324 325 325 324
158 118 73 60 66 75 76 78 83 96 110 99 65 44 51 64 57 43 45 53 58 67 90 131 129 140 205 229 216 221 270 37 111 196 228 228 205 215 240 250 247 229 310 316 316 316 318 321 322 320 319 320 320 320 319 320 320 320 321 321 320 319 317 316 317 318 319 319 319 320 319 317 316 315 315 316 316 316 317 320 325 330 333 334 333 331 328
95 96 88 73 61 59 67 77 73 71 77 80 72 69 77 77 53 33 51 55 51 70 73 68 98 173 210 219 215 286 335 22 167 211 224 237 22 310 237 232 265 330 314 311 313 316 317 318 319 318 317 317 318 320 322 322 322 321 322 321 319 318 318 318 320 321 321 321 322 322 320 319 319 320 319 318 318 319 321 325 330 337 342 344 343 343 342
Height
1470 1470 1470 1469 1469 1468 1468 1468 1469 1469 1470 1472 1474 1476 1477 1477 1475 1474 1474 1474 1474 1477 1480 1481 1481 1480 1477 1473 1473 1473 1473 1471 1470 1469 1469 1469 1468 1466 1466 1464 1463 1463 1464 1466 1466 1467 1464 1457 1451 1445 1438 1434 1429 1426 1426 1426 1426 1427 1427 1426 1423 1423 1425 1429 1427 1420 1415 1414 1414 1416 1418 1419 1420 1419 1417 1418 1418 1416 1416 1414 1412 1412 1413 1410 1411 1408 1383
1468 1468 1467 1467 1466 1466 1465 1466 1467 1468 1469 1469 1471 1473 1474 1473 1472 1472 1472 1472 1472 1473 1474 1475 1476 1474 1472 1471 1471 1470 1469 1468 1467 1465 1464 1464 1463 1462 1461 1460 1459 1459 1459 1462 1464 1466 1464 1457 1451 1448 1444 1438 1432 1430 1428 1428 1429 1430 1432 1435 1435 1433 1429 1427 1430 1431 1428 1425 1422 1420 1420 1422 1422 1418 1415 1414 1413 1413 1413 1412 1412 1411 1409 1406 1405 1399 1384
1467 1466 1465 1465 1464 1464 1463 1463 1464 1466 1467 1468 1469 1471 1471 1470 1470 1469 1468 1468 1468 1465 1464 1466 1467 1468 1469 1467 1466 1466 1465 1462 1460 1457 1455 1456 1457 1456 1454 1453 1454 1455 1456 1458 1457 1458 1460 1458 1452 1450 1448 1441 1434 1431 1429 1429 1429 1429 1432 1435 1437 1440 1439 1437 1439 1441 1439 1436 1431 1425 1422 1423 1422 1419 1415 1413 1412 1413 1413 1413 1414 1412 1406 1402 1401 1396 1385
1466 1465 1464 1463 1463 1462 1462 1461 1462 1463 1465 1467 1468 1469 1469 1468 1466 1464 1463 1464 1462 1459 1458 1459 1460 1461 1464 1463 1461 1463 1460 1454 1454 1453 1451 1451 1451 1450 1449 1449 1450 1451 1452 1453 1452 1451 1453 1454 1451 1449 1447 1441 1434 1430 1428 1428 1426 1425 1427 1431 1435 1441 1445 1445 1447 1446 1441 1436 1429 1423 1422 1423 1422 1419 1415 1414 1414 1412 1413 1416 1415 1411 1406 1401 1398 1394 1390
1465 1464 1464 1463 1462 1461 1460 1460 1460 1461 1462 1464 1465 1467 1467 1466 1461 1459 1460 1459 1457 1455 1454 1454 1453 1454 1457 1456 1453 1454 1453 1451 1451 1451 1448 1446 1446 1446 1446 1447 1447 1446 1446 1448 1448 1447 1446 1447 1446 1443 1440 1436 1430 1427 1427 1426 1424 1424 1425 1428 1433 1439 1442 1441 1442 1442 1439 1434 1428 1425 1425 1423 1420 1419 1416 1416 1415 1414 1414 1414 1409 1407 1406 1400 1394 1393 1390
1463 1463 1462 1462 1461 1460 1460 1459 1459 1459 1460 1462 1463 1464 1464 1462 1458 1455 1455 1454 1451 1450 1450 1449 1448 1449 1451 1449 1445 1445 1446 1446 1447 1445 1441 1439 1441 1443 1441 1440 1439 1438 1438 1440 1440 1440 1440 1439 1438 1436 1433 1430 1427 1425 1425 1423 1421 1422 1424 1425 1429 1435 1437 1435 1435 1434 1432 1432 1430 1428 1425 1421 1417 1416 1416 1414 1413 1413 1414 1410 1402 1400 1399 1393 1390 1389 1383
1461 1460 1460 1460 1460 1460 1459 1459 1458 1458 1459 1459 1461 1461 1461 1460 1457 1454 1454 1452 1448 1447 1447 1447 1446 1447 1447 1445 1442 1442 1440 1438 1438 1438 1437 1436 1436 1437 1435 1432 1431 1430 1430 1432 1432 1433 1433 1430 1427 1426 1424 1423 1423 1422 1420 1417 1417 1419 1421 1422 1424 1428 1430 1429 1430 1429 1427 1427 1426 1424 1422 1419 1414 1412 1412 1412 1411 1409 1405 1399 1395 1394 1392 1387 1384 1381 1375
1459 1459 1458 1458 1458 1458 1458 1458 1458 1458 1457 1457 1458 1458 1459 1459 1457 1455 1454 1451 1448 1447 1446 1447 1446 1445 1445 1443 1440 1439 1437 1434 1433 1432 1432 1431 1430 1429 1427 1423 1422 1422 1423 1424 1423 1422 1422 1419 1416 1415 1415 1417 1419 1418 1414 1411 1413 1416 1417 1418 1419 1421 1419 1419 1424 1426 1422 1418 1417 1415 1415 1414 1411 1408 1408 1411 1410 1401 1392 1390 1392 1392 1388 1381 1377 1376 1372
1457 1457 1456 1456 1456 1456 1456 1456 1456 1457 1456 1456 1456 1457 1457 1457 1456 1456 1455 1451 1448 1447 1445 1445 1445 1443 1443 1441 1438 1437 1435 1433 1432 1428 1425 1426 1426 1424 1423 1421 1419 1419 1418 1418 1416 1413 1411 1408 1405 1404 1406 1408 1410 1408 1405 1406 1409 1412 1413 1412 1413 1415 1412 1412 1420 1419 1410 1407 1408 1405 1406 1409 1409 1409 1411 1408 1400 1388 1383 1385 1386 1384 1380 1375 1374 1373 1365
1454 1454 1454 1454 1454 1454 1454 1454 1454 1455 1455 1455 1455 1454 1455 1455 1454 1455 1455 1452 1448 1446 1445 1445 1444 1440 1438 1437 1435 1435 1433 1432 1433 1428 1422 1421 1422 1420 1420 1421 1420 1419 1417 1415 1413 1411 1407 1404 1402 1402 1401 1400 1401 1400 1398 1399 1401 1404 1405 1404 1405 1408 1407 1408 1412 1407 1398 1396 1397 1396 1402 1405 1402 1402 1402 1392 1381 1379 1381 1381 1375 1370 1369 1369 1366 1358 1349
1452 1452 1452 1452 1452 1452 1452 1452 1452 1453 1453 1453 1453 1452 1453 1454 1453 1453 1455 1452 1446 1445 1446 1446 1443 1438 1436 1436 1434 1434 1433 1433 1434 1431 1423 1420 1421 1420 1419 1420 1419 1416 1414 1413 1412 1411 1408 1405 1403 1401 1400 1399 1398 1398 1397 1395 1395 1398 1401 1402 1400 1401 1402 1402 1401 1397 1389 1387 1389 1394 1397 1388 1377 1377 1379 1373 1370 1374 1373 1366 1359 1353 1352 1352 1346 1339 1336
1450 1450 1449 1449 1450 1449 1450 1450 1450 1451 1451 1451 1451 1450 1451 1452 1452 1452 1454 1451 1446 1444 1444 1443 1441 1439 1437 1436 1435 1435 1435 1434 1433 1431 1427 1424 1423 1423 1421 1421 1419 1415 1413 1412 1411 1409 1405 1402 1399 1396 1395 1394 1392 1393 1394 1393 1393 1394 1396 1398 1397 1397 1400 1398 1394 1390 1384 1383 1389 1389 1375 1362 1358 1360 1362 1363 1364 1362 1357 1349 1344 1342 1340 1338 1334 1331 1331
1447 1447 1447 1446 1446 1447 1447 1447 1447 1448 1448 1448 1448 1448 1449 1450 1450 1450 1451 1451 1447 1444 1442 1440 1440 1439 1437 1436 1436 1435 1434 1433 1431 1429 1427 1425 1424 1423 1422 1422 1420 1417 1415 1413 1412 1410 1406 1401 1397 1393 1389 1387 1385 1385 1385 1384 1383 1384 1385 1386 1388 1389 1391 1390 1388 1385 1380 1381 1383 1369 1348 1344 1353 1355 1355 1360 1358 1355 1353 1345 1335 1334 1333 1330 1328 1327 1326
1443 1443 1443 1443 1443 1444 1444 1444 1445 1445 1446 1446 1446 1446 1446 1447 1447 1447 1449 1448 1445 1442 1442 1440 1437 1436 1436 1436 1436 1435 1433 1432 1430 1428 1426 1424 1423 1422 1421 1421 1420 1418 1417 1414 1412 1412 1408 1402 1396 1389 1384 1383 1380 1376 1373 1371 1369 1370 1372 1373 1375 1377 1379 1380 1379 1375 1372 1371 1365 1353 1343 1344 1349 1348 1347 1349 1344 1343 1345 1334 1319 1319 1325 1324 1324 1323 1319
1440 1440 1440 1440 1440 1441 1441 1441 1442 1442 1442 1443 1443 1443 1444 1444 1445 1445 1445 1445 1444 1441 1439 1437 1435 1435 1436 1436 1436 1434 1432 1431 1429 1427 1425 1423 1422 1420 1420 1419 1418 1417 1415 1415 1414 1412 1410 1404 1397 1389 1381 1377 1373 1367 1363 1362 1358 1357 1358 1359 1361 1364 1367 1370 1368 1361 1360 1360 1354 1350 1347 1340 1335 1333 1333 1332 1329 1327 1330 1322 1307 1309 1318 1318 1314 1312 1308
1437 1437 1437 1437 1437 1437 1437 1438 1438 1439 1440 1440 1440 1440 1440 1441 1442 1442 1442 1443 1443 1438 1433 1432 1433 1435 1435 1435 1435 1435 1433 1431 1428 1426 1423 1421 1419 1419 1418 1418 1418 1416 1415 1415 1414 1412 1410 1403 1396 1389 1380 1374 1372 1366 1361 1360 1357 1352 1349 1350 1353 1355 1356 1360 1360 1354 1352 1352 1346 1341 1334 1324 1320 1322 1322 1324 1323 1321 1328 1325 1309 1305 1311 1309 1303 1301 1299
1434 1434 1433 1434 1434 1434 1434 1434 1435 1435 1436 1437 1436 1436 1437 1438 1439 1440 1439 1439 1438 1433 1428 1430 1432 1433 1434 1432 1432 1432 1431 1429 1428 1427 1425 1422 1420 1420 1418 1416 1415 1415 1416 1417 1414 1410 1407 1401 1394 1388 1379 1373 1372 1367 1360 1358 1357 1353 1350 1349 1349 1351 1352 1352 1349 1344 1344 1342 1333 1326 1320 1314 1313 1314 1314 1316 1317 1322 1333 1328 1307 1297 1301 1298 1294 1294 1294
1430 1430 1430 1430 1430 1430 1430 1430 1431 1432 1432 1433 1433 1432 1432 1434 1436 1436 1435 1435 1433 1428 1425 1428 1430 1429 1430 1430 1428 1428 1428 1426 1427 1427 1425 1423 1422 1421 1419 1418 1416 1415 1416 1417 1414 1410 1408 1403 1397 1389 1378 1369 1367 1364 1360 1358 1355 1355 1356 1353 1348 1346 1346 1344 1339 1335 1336 1335 1327 1319 1314 1309 1308 1308 1309 1312 1316 1323 1329 1320 1304 1302 1304 1301 1300 1300 1299
1426 1426 1426 1426 1426 1426 1427 1427 1427 1428 1428 1429 1429 1428 1428 1430 1432 1432 1432 1431 1429 1425 1422 1425 1426 1425 1426 1427 1425 1425 1425 1425 1425 1426 1424 1423 1421 1419 1418 1418 1417 1415 1414 1414 1413 1411 1407 1402 1397 1393 1388 1380 1373 1372 1374 1374 1370 1371 1373 1369 1361 1353 1344 1338 1334 1329 1326 1325 1322 1316 1310 1310 1313 1311 1306 1308 1317 1325 1326 1319 1314 1316 1315 1312 1311 1311 1310
1422 1422 1422 1422 1422 1423 1423 1423 1424 1424 1424 1425 1425 1424 1423 1425 1427 1428 1427 1426 1426 1422 1419 1420 1421 1421 1423 1424 1422 1422 1422 1423 1423 1424 1424 1422 1419 1419 1420 1418 1415 1414 1414 1413 1412 1409 1405 1402 1401 1401 1398 1392 1386 1384 1385 1382 1378 1379 1383 1380 1374 1366 1355 1344 1335 1328 1323 1319 1315 1314 1315 1318 1323 1323 1316 1317 1326 1332 1331 1326 1322 1320 1318 1316 1316 1315 1315
1418 1418 1418 1418 1418 1419 1419 1419 1420 1420 1420 1421 1422 1420 1419 1420 1423 1424 1423 1423 1422 1418 1415 1415 1417 1417 1418 1418 1418 1418 1419 1419 1420 1420 1420 1419 1418 1421 1421 1418 1415 1416 1415 1412 1411 1409 1407 1406 1406 1403 1399 1395 1393 1391 1391 1386 1378 1374 1376 1376 1371 1367 1364 1358 1348 1343 1344 1336 1323 1320 1325 1329 1331 1333 1334 1334 1337 1338 1334 1329 1324 1321 1320 1319 1318 1316 1316
1413 1413 1414 1414 1414 1414 1415 1415 1416 1416 1416 1417 1418 1416 1414 1415 1418 1420 1420 1420 1417 1413 1411 1412 1412 1413 1413 1413 1414 1415 1416 1416 1416 1417 1417 1417 1417 1417 1417 1414 1415 1416 1414 1411 1411 1410 1408 1407 1406 1402 1399 1398 1396 1392 1391 1391 1384 1373 1370 1370 1366 1360 1360 1362 1358 1354 1355 1351 1338 1330 1331 1332 1332 1334 1336 1336 1336 1335 1333 1329 1326 1324 1322 1320 1319 1317 1315
1409 1409 1409 1410 1410 1410 1410 1411 1412 1412 1412 1413 1413 1412 1411 1412 1414 1416 1416 1415 1413 1410 1408 1409 1409 1408 1407 1407 1408 1410 1411 1412 1411 1412 1413 1414 1413 1412 1412 1411 1412 1411 1410 1410 1410 1409 1409 1408 1405 1403 1400 1397 1395 1391 1387 1385 1381 1374 1368 1364 1361 1358 1357 1359 1358 1353 1350 1347 1341 1336 1333 1331 1328 1328 1329 1331 1332 1331 1330 1328 1326 1324 1322 1321 1320 1317 1315
1404 1404 1405 1405 1406 1406 1406 1406 1407 1407 1408 1409 1408 1408 1408 1408 1409 1411 1412 1411 1410 1407 1405 1404 1402 1400 1399 1401 1404 1405 1405 1405 1405 1406 1408 1409 1409 1408 1407 1407 1408 1407 1406 1407 1407 1407 1408 1405 1403 1402 1399 1394 1393 1391 1386 1380 1376 1373 1369 1363 1360 1360 1359 1357 1355 1355 1352 1344 1337 1336 1337 1333 1327 1324 1325 1327 1328 1328 1327 1326 1323 1321 1320 1319 1318 1316 1314
1399 1399 1400 1400 1401 1401 1401 1401 1402 1403 1403 1404 1404 1404 1403 1403 1405 1407 1408 1406 1406 1405 1402 1398 1394 1393 1395 1398 1400 1399 1399 1399 1400 1401 1402 1403 1403 1403 1402 1402 1404 1404 1403 1403 1404 1404 1404 1402 1400 1399 1396 1392 1391 1389 1384 1380 1377 1374 1372 1369 1364 1362 1361 1358 1355 1354 1351 1345 1337 1335 1335 1332 1329 1328 1326 1325 1325 1325 1324 1324 1322 1319 1318 1317 1316 1314 1312
1394 1395 1395 1396 1396 1397 1397 1397 1398 1398 1399 1399 1400 1400 1398 1398 1401 1402 1402 1402 1403 1402 1398 1393 1389 1390 1394 1394 1393 1393 1394 1396 1397 1397 1397 1398 1398 1398 1398 1399 1400 1400 1399 1400 1401 1400 1399 1399 1398 1397 1394 1390 1388 1384 1380 1378 1377 1374 1372 1370 1367 1364 1361 1358 1354 1349 1344 1341 1337 1334 1332 1328 1328 1330 1330 1327 1325 1322 1321 1320 1320 1319 1317 1315 1314 1313 1311
1389 1390 1390 1391 1391 1392 1392 1393 1394 1394 1394 1395 1396 1395 1394 1394 1395 1396 1396 1398 1400 1397 1393 1389 1387 1388 1390 1389 1388 1389 1390 1391 1392 1393 1393 1394 1394 1394 1395 1395 1396 1396 1396 1397 1396 1396 1396 1395 1393 1392 1389 1386 1383 1381 1378 1375 1374 1373 1369 1365 1366 1365 1359 1354 1353 1350 1342 1337 1336 1336 1334 1329 1325 1326 1329 1329 1326 1322 1319 1317 1317 1317 1317 1315 1313 1311 1309
1384 1385 1385 1386 1387 1387 1388 1388 1389 1389 1390 1391 1391 1390 1389 1388 1389 1390 1390 1392 1394 1391 1387 1386 1386 1386 1385 1384 1384 1385 1386 1387 1388 1389 1389 1389 1390 1391 1391 1391 1392 1392 1392 1392 1392 1391 1391 1390 1388 1386 1384 1382 1380 1378 1374 1373 1372 1370 1367 1362 1361 1360 1355 1351 1350 1346 1339 1336 1337 1339 1338 1333 1328 1326 1325 1326 1326 1324 1320 1318 1316 1316 1315 1314 1311 1308 1305
1379 1380 1381 1381 1382 1383 1383 1384 1385 1385 1386 1387 1386 1385 1383 1382 1382 1384 1385 1386 1388 1387 1385 1384 1383 1382 1380 1380 1381 1382 1383 1384 1384 1385 1385 1385 1386 1386 1386 1386 1387 1387 1387 1387 1387 1386 1384 1383 1382 1380 1378 1378 1377 1373 1370 1370 1368 1364 1360 1358 1356 1353 1350 1349 1346 1341 1338 1338 1340 1340 1337 1334 1331 1328 1326 1325 1325 1324 1321 1319 1316 1313 1310 1308 1306 1304 1301
1374 1375 1376 1376 1377 1378 1378 1379 1380 1381 1382 1383 1382 1380 1378 1375 1374 1377 1380 1382 1383 1383 1382 1381 1379 1377 1375 1376 1377 1378 1379 1380 1380 1380 1381 1381 1382 1381 1381 1381 1381 1382 1383 1382 1381 1381 1379 1377 1376 1374 1373 1373 1373 1370 1367 1366 1362 1357 1354 1353 1351 1348 1346 1345 1344 1341 1339 1338 1338 1337 1336 1333 1330 1327 1325 1325 1324 1321 1318 1316 1314 1311 1307 1303 1300 1297 1295
1370 1371 1371 1372 1373 1373 1374 1374 1375 1376 1378 1378 1377 1375 1373 1370 1369 1371 1374 1377 1378 1379 1378 1377 1376 1374 1372 1372 1372 1372 1373 1375 1375 1375 1375 1376 1376 1376 1377 1377 1377 1377 1378 1377 1376 1375 1374 1372 1370 1368 1367 1368 1367 1364 1361 1360 1357 1352 1349 1348 1346 1344 1343 1342 1341 1339 1338 1335 1333 1332 1331 1329 1327 1323 1321 1320 1319 1316 1313 1310 1308 1306 1304 1300 1297 1293 1289
1366 1366 1367 1367 1368 1368 1369 1369 1370 1371 1371 1370 1369 1368 1368 1367 1368 1369 1371 1373 1374 1375 1375 1375 1373 1371 1369 1367 1366 1366 1368 1369 1370 1371 1371 1371 1371 1372 1372 1372 1372 1372 1372 1372 1372 1370 1367 1366 1365 1363 1362 1363 1361 1357 1355 1355 1352 1347 1345 1343 1342 1341 1340 1339 1337 1336 1335 1333 1331 1329 1326 1324 1323 1321 1319 1316 1315 1313 1310 1305 1302 1300 1297 1293 1291 1288 1284
1361 1362 1362 1363 1363 1363 1364 1364 1365 1365 1365 1364 1363 1362 1362 1364 1366 1367 1369 1370 1371 1371 1372 1371 1369 1367 1365 1363 1362 1362 1364 1365 1366 1367 1367 1367 1367 1367 1367 1367 1367 1367 1368 1367 1366 1364 1361 1360 1360 1358 1357 1356 1355 1352 1350 1348 1345 1342 1340 1339 1338 1337 1336 1335 1335 1334 1332 1330 1331 1331 1328 1322 1318 1317 1316 1314 1311 1309 1305 1301 1297 1293 1290 1287 1283 1281 1279
1356 1357 1358 1358 1358 1359 1359 1359 1359 1359 1358 1358 1357 1356 1358 1360 1362 1364 1365 1366 1367 1367 1367 1367 1365 1364 1363 1362 1361 1360 1360 1362 1363 1363 1362 1362 1362 1362 1362 1362 1363 1363 1362 1361 1359 1358 1357 1356 1355 1354 1352 1351 1351 1349 1346 1342 1339 1337 1336 1335 1334 1333 1332 1331 1331 1331 1329 1328 1328 1327 1326 1321 1317 1314 1312 1309 1307 1304 1301 1298 1294 1290 1285 1281 1278 1276 1274
1352 1353 1353 1354 1354 1354 1354 1354 1353 1353 1353 1352 1351 1351 1353 1356 1357 1359 1360 1361 1363 1364 1363 1362 1362 1362 1361 1361 1360 1358 1357 1358 1358 1357 1357 1357 1357 1357 1357 1358 1359 1358 1356 1355 1355 1354 1353 1352 1351 1349 1347 1347 1347 1344 1340 1336 1334 1334 1333 1332 1331 1330 1329 1329 1328 1326 1325 1325 1323 1321 1320 1319 1316 1312 1308 1304 1302 1300 1297 1294 1291 1288 1283 1277 1273 1270 1268
1348 1349 1349 1349 1349 1349 1349 1348 1348 1348 1347 1347 1346 1347 1350 1351 1352 1354 1355 1356 1357 1357 1356 1356 1357 1357 1358 1358 1356 1354 1355 1355 1354 1354 1354 1353 1353 1353 1353 1355 1355 1353 1351 1351 1351 1350 1348 1347 1346 1345 1343 1343 1341 1337 1333 1332 1332 1332 1332 1331 1331 1330 1330 1329 1327 1324 1321 1319 1319 1318 1317 1316 1313 1309 1305 1300 1296 1294 1292 1288 1285 1283 1279 1272 1267 1263 1260
1344 1345 1345 1345 1345 1345 1344 1343 1342 1342 1342 1343 1344 1346 1347 1347 1349 1351 1351 1352 1352 1351 1351 1352 1351 1351 1352 1353 1351 1351 1353 1352 1350 1350 1350 1350 1349 1348 1348 1350 1351 1349 1348 1347 1345 1343 1342 1341 1341 1341 1339 1337 1334 1331 1330 1331 1331 1330 1331 1331 1330 1329 1329 1329 1327 1323 1319 1315 1313 1313 1313 1310 1307 1304 1302 1298 1292 1288 1286 1282 1280 1279 1275 1269 1264 1260 1255
1340 1341 1341 1342 1342 1342 1341 1338 1337 1338 1339 1340 1342 1344 1345 1345 1346 1347 1347 1347 1347 1347 1347 1349 1348 1347 1348 1349 1348 1349 1349 1348 1347 1348 1347 1346 1346 1345 1344 1345 1345 1345 1344 1342 1338 1337 1337 1337 1336 1335 1333 1330 1329 1329 1329 1329 1329 1329 1330 1330 1329 1328 1328 1326 1325 1324 1320 1315 1311 1310 1308 1304 1298 1295 1294 1293 1289 1284 1281 1278 1276 1274 1272 1268 1264 1259 1253
1337 1337 1338 1338 1339 1338 1337 1336 1335 1336 1338 1339 1339 1341 1342 1343 1344 1344 1342 1342 1342 1342 1343 1344 1343 1343 1344 1345 1345 1345 1345 1345 1347 1347 1345 1344 1344 1343 1342 1342 1340 1341 1342 1339 1334 1334 1335 1333 1330 1330 1329 1326 1326 1327 1327 1327 1328 1328 1328 1328 1327 1327 1326 1325 1323 1323 1321 1318 1315 1313 1312 1308 1302 1294 1289 1287 1283 1279 1275 1273 1272 1270 1267 1264 1261 1258 1252
1333 1334 1334 1335 1334 1334 1335 1335 1335 1336 1337 1337 1337 1338 1339 1339 1340 1339 1338 1339 1339 1338 1338 1339 1338 1338 1340 1341 1341 1341 1342 1343 1344 1344 1343 1342 1341 1340 1340 1339 1337 1339 1342 1339 1331 1329 1330 1328 1326 1326 1325 1322 1322 1325 1326 1326 1327 1327 1327 1327 1326 1325 1323 1322 1321 1320 1318 1316 1313 1311 1310 1308 1305 1298 1292 1287 1283 1276 1270 1266 1265 1265 1263 1260 1256 1254 1250
1329 1330 1331 1331 1331 1331 1332 1333 1334 1335 1335 1336 1336 1337 1336 1336 1336 1335 1336 1338 1337 1334 1333 1334 1334 1334 1335 1336 1337 1338 1339 1339 1340 1341 1342 1340 1338 1338 1339 1337 1335 1339 1341 1336 1328 1325 1325 1325 1324 1322 1320 1320 1323 1325 1326 1326 1326 1326 1326 1325 1324 1323 1321 1319 1318 1317 1314 1311 1308 1306 1304 1302 1300 1296 1291 1286 1282 1276 1270 1264 1260 1258 1258 1256 1251 1248 1245
1325 1326 1327 1328 1329 1329 1330 1331 1332 1333 1333 1333 1334 1334 1333 1334 1334 1334 1334 1334 1332 1329 1328 1329 1330 1330 1331 1332 1334 1335 1336 1337 1338 1340 1340 1338 1336 1336 1336 1335 1335 1338 1337 1329 1323 1322 1323 1324 1321 1318 1318 1322 1325 1325 1325 1325 1325 1325 1324 1322 1320 1320 1318 1316 1313 1312 1311 1308 1304 1301 1299 1297 1294 1291 1288 1283 1277 1272 1268 1264 1258 1253 1252 1251 1248 1243 1240
1322 1322 1324 1325 1326 1328 1329 1329 1329 1330 1330 1330 1331 1332 1331 1331 1331 1331 1330 1329 1327 1326 1326 1326 1326 1328 1329 1331 1332 1333 1335 1336 1336 1336 1338 1337 1334 1334 1336 1335 1334 1333 1329 1323 1321 1322 1322 1319 1316 1316 1320 1326 1326 1324 1325 1325 1324 1322 1321 1320 1318 1316 1314 1312 1310 1307 1305 1304 1301 1297 1293 1291 1287 1285 1283 1280 1274 1267 1262 1260 1257 1252 1248 1245 1243 1239 1236
1319 1320 1322 1323 1324 1326 1327 1326 1325 1326 1327 1326 1327 1328 1328 1328 1327 1326 1325 1325 1324 1323 1323 1323 1324 1326 1328 1329 1330 1332 1333 1333 1334 1335 1336 1335 1333 1334 1336 1334 1328 1325 1323 1322 1322 1321 1317 1314 1315 1320 1325 1327 1325 1324 1324 1324 1321 1319 1316 1315 1314 1313 1310 1308 1305 1302 1299 1297 1295 1291 1288 1285 1282 1279 1276 1275 1271 1265 1258 1255 1253 1250 1245 1241 1237 1234 1231
1315 1317 1319 1321 1322 1323 1324 1322 1321 1322 1322 1320 1320 1321 1321 1321 1321 1321 1322 1323 1323 1323 1323 1323 1324 1325 1327 1328 1329 1330 1330 1331 1333 1333 1332 1332 1333 1333 1331 1327 1323 1322 1322 1322 1322 1318 1312 1311 1319 1326 1328 1326 1325 1325 1323 1321 1319 1317 1313 1309 1308 1308 1306 1303 1300 1297 1294 1291 1289 1286 1283 1279 1276 1273 1270 1268 1266 1263 1257 1251 1248 1246 1242 1238 1234 1230 1227
1313 1314 1316 1318 1318 1318 1319 1319 1319 1318 1316 1315 1315 1316 1316 1317 1318 1320 1322 1323 1323 1323 1324 1325 1325 1327 1328 1328 1328 1328 1328 1329 1330 1329 1329 1330 1331 1329 1324 1322 1322 1323 1322 1322 1319 1313 1309 1312 1322 1327 1327 1325 1325 1324 1321 1320 1318 1316 1312 1307 1304 1302 1301 1298 1295 1292 1289 1286 1283 1280 1277 1274 1271 1268 1264 1261 1260 1257 1253 1248 1245 1242 1238 1234 1230 1227 1223
1311 1312 1313 1315 1315 1315 1315 1315 1314 1314 1314 1314 1315 1317 1317 1318 1320 1322 1323 1323 1323 1324 1325 1325 1325 1326 1326 1325 1326 1326 1326 1326 1327 1327 1326 1327 1327 1324 1321 1322 1322 1321 1320 1318 1313 1308 1309 1318 1326 1327 1325 1324 1323 1321 1319 1317 1315 1313 1310 1307 1303 1299 1297 1294 1291 1288 1285 1282 1278 1275 1272 1269 1266 1263 1260 1256 1254 1251 1248 1244 1241 1238 1235 1232 1228 1224 1220
1308 1310 1312 1313 1312 1311 1311 1311 1310 1312 1313 1315 1316 1317 1318 1319 1321 1323 1324 1324 1324 1324 1324 1323 1324 1324 1323 1323 1324 1324 1324 1325 1326 1324 1321 1322 1324 1323 1322 1322 1320 1314 1310 1309 1309 1311 1318 1326 1328 1326 1324 1324 1322 1319 1316 1314 1312 1309 1307 1304 1300 1297 1294 1290 1287 1284 1281 1278 1274 1270 1267 1265 1262 1259 1256 1252 1248 1246 1243 1241 1237 1234 1232 1229 1225 1221 1218
1306 1307 1309 1309 1308 1308 1310 1309 1310 1312 1315 1316 1316 1318 1319 1320 1321 1323 1323 1322 1322 1322 1322 1322 1324 1324 1323 1322 1323 1323 1322 1323 1323 1321 1319 1320 1321 1319 1318 1318 1315 1309 1308 1312 1318 1323 1327 1328 1326 1325 1324 1322 1320 1317 1314 1311 1309 1306 1304 1300 1297 1295 1291 1288 1284 1281 1278 1275 1271 1267 1264 1261 1258 1255 1252 1249 1245 1242 1239 1237 1234 1231 1229 1226 1222 1219 1215
1304 1305 1307 1308 1307 1309 1310 1309 1309 1312 1315 1317 1318 1319 1320 1321 1321 1322 1322 1321 1321 1322 1322 1323 1324 1325 1324 1324 1324 1324 1321 1319 1319 1320 1319 1319 1317 1316 1315 1313 1308 1307 1313 1323 1328 1329 1328 1327 1325 1323 1321 1319 1317 1315 1312 1309 1306 1303 1300 1297 1295 1292 1289 1286 1282 1278 1275 1272 1268 1264 1261 1258 1256 1253 1250 1246 1243 1239 1237 1235 1232 1229 1226 1223 1220 1217 1213
1302 1305 1308 1310 1310 1310 1311 1311 1311 1313 1315 1318 1320 1321 1321 1322 1322 1322 1323 1323 1323 1323 1323 1323 1324 1325 1325 1324 1324 1323 1321 1318 1317 1317 1316 1314 1312 1310 1308 1309 1313 1319 1326 1331 1331 1329 1327 1326 1325 1321 1318 1315 1313 1311 1309 1306 1303 1300 1297 1294 1292 1288 1285 1282 1279 1275 1271 1268 1265 1262 1259 1256 1254 1251 1248 1244 1241 1238 1235 1232 1230 1227 1224 1221 1219 1216 1213
1303 1306 1310 1312 1312 1312 1313 1314 1316 1317 1319 1320 1321 1322 1322 1323 1323 1323 1324 1324 1324 1324 1324 1323 1323 1324 1323 1323 1323 1322 1320 1319 1319 1316 1313 1313 1317 1316 1314 1318 1327 1333 1334 1330 1328 1327 1327 1325 1323 1321 1318 1313 1310 1308 1305 1303 1300 1297 1294 1291 1288 1284 1281 1278 1274 1271 1268 1265 1262 1260 1257 1254 1251 1249 1246 1242 1240 1237 1233 1230 1228 1226 1223 1220 1218 1215 1213